Home > Weather > Dreieich > Past weeks

Flag for Germany Past Weather in Dreieich, Hesse, Germany — Yesterday and Last 2 Weeks

Now
77 °F

Partly sunny.


Feels Like: 79 °F
Forecast: 58 / 72 °F
Wind: 9 mph from Southwest

Location: Frankfurt-M-Flughafen Airport

Current Time: Jul 28, 2016 at 4:36:19 PM

Latest Report: Jul 28, 2016 at 4:20 PM


Visibility: N/A

Pressure: 29.98 "Hg

Humidity: 51%

Dew Point: 57 °F

Location of DreieichLocation

Past Weather in Dreieich — Graph

°F

Dreieich Temperature Yesterday

Maximum temperature yesterday: 79 °F (at 1:20 PM)
Minimum temperature yesterday: 63 °F (at 3:50 AM)
Average temperature yesterday: 70 °F

High & Low Weather Summary for the Past Weeks

 TemperatureHumidityPressure
High95 °F (Jul 20, 2:50 PM)100% (Jul 22, 4:50 AM)30.30 "Hg (Jul 22, 4:50 AM)
Low50 °F (Jul 16, 2:50 AM)22% (Jul 20, 6:20 PM)29.89 "Hg (Jul 20, 5:50 PM)
Average71 °F68%30.09 "Hg
* Reported Jul 13 3:20 PM — Jul 28 3:20 PM, Dreieich, Weather by CustomWeather, © 2016

Note: Actual official high and low records may vary slightly from our data, if they occured in-between our weather recording intervals... More about our weather records

Advertising

Dreieich Weather History for the Previous 24 Hours

Scroll right to see more
 ConditionsComfort  
Time TempWeatherWind HumidityBarometerVisibility
3:20 PM
Thu, Jul 28
77 °FBroken clouds.12 mph51%30.01 "HgN/A
2:50 PM75 °FBroken clouds.9 mph54%30.01 "HgN/A
2:20 PM75 °FBroken clouds.9 mph54%30.01 "HgN/A
1:50 PM73 °FBroken clouds.8 mph57%30.04 "HgN/A
1:20 PM75 °FBroken clouds.8 mph57%30.04 "HgN/A
12:50 PM75 °FPartly sunny.10 mph54%30.04 "HgN/A
12:20 PM75 °FBroken clouds.10 mph50%30.04 "HgN/A
11:50 AM73 °FBroken clouds.9 mph57%30.04 "HgN/A
11:20 AM75 °FBroken clouds.8 mph54%30.04 "HgN/A
10:50 AM72 °FBroken clouds.6 mph65%30.04 "HgN/A
10:20 AM72 °FBroken clouds.6 mph61%30.04 "HgN/A
9:50 AM70 °FBroken clouds.5 mph64%30.04 "HgN/A
9:20 AM70 °FBroken clouds.6 mph69%30.04 "HgN/A
8:50 AM66 °FBroken clouds.5 mph78%30.04 "HgN/A
8:20 AM66 °FPassing clouds.5 mph78%30.04 "HgN/A
7:50 AM64 °FPassing clouds.3 mph83%30.04 "HgN/A
7:20 AM64 °FPassing clouds.5 mph83%30.04 "HgN/A
6:50 AM63 °FSunny.3 mph88%30.04 "Hg10 mi
6:20 AM61 °FPassing clouds.3 mph94%30.04 "HgN/A
5:50 AM61 °FClear.2 mph94%30.04 "Hg10 mi
5:20 AM63 °FClear.2 mph88%30.04 "Hg10 mi
4:50 AM63 °FClear.1 mph88%30.04 "Hg10 mi
4:20 AM64 °FClear.3 mph78%30.04 "Hg10 mi
3:50 AM64 °FClear.2 mph78%30.04 "Hg10 mi
3:20 AM63 °FClear.6 mph88%30.04 "Hg10 mi
2:50 AM63 °FClear.5 mph88%30.04 "Hg10 mi
2:20 AM63 °FClear.3 mph88%30.04 "Hg10 mi
1:50 AM63 °FPassing clouds.5 mph83%30.04 "HgN/A
1:20 AM64 °FClear.7 mph78%30.04 "Hg10 mi
12:50 AM64 °FClear.5 mph83%30.04 "Hg10 mi
12:20 AM63 °FClear.5 mph88%30.04 "Hg10 mi
11:50 PM
Wed, Jul 27
64 °FClear.1 mph83%30.04 "Hg10 mi
11:20 PM64 °FClear.2 mph83%30.04 "Hg10 mi
10:50 PM66 °FPassing clouds.3 mph78%30.04 "HgN/A
10:20 PM64 °FPassing clouds.3 mph83%30.04 "HgN/A
9:50 PM66 °FPassing clouds.5 mph73%30.04 "HgN/A
9:20 PM68 °FPassing clouds.5 mph69%30.01 "HgN/A
8:50 PM73 °FPassing clouds.5 mph53%30.01 "HgN/A
8:20 PM75 °FPassing clouds.6 mph47%30.01 "HgN/A
7:50 PM77 °FPassing clouds.8 mph44%30.01 "HgN/A
7:20 PM75 °FPassing clouds.7 mph47%30.01 "HgN/A
6:50 PM79 °FPassing clouds.10 mph42%30.01 "HgN/A
6:20 PM77 °FPassing clouds.14 mph44%30.01 "HgN/A
5:50 PM79 °FPassing clouds.14 mph42%30.01 "HgN/A
5:20 PM77 °FPassing clouds.14 mph42%30.01 "HgN/A
4:50 PM79 °FSunny.14 mph42%30.01 "Hg10 mi
4:20 PM79 °FSunny.15 mph45%30.01 "Hg10 mi
Weather by CustomWeather, © 2016

See weather overviewHow to use our weather pages